KE7YUP Weather Reports


time (UTC)temp
F
wind
direction
speed
knots
gust
knots
rain 1hr
in
rain 24hr
in
rain mn
in
humidity
%
barometer
mb
20260906023215 78 177 2.6 7.0 0.00 0.00 0.00 19 1017.1
20260906022235 79 166 4.3 5.2 0.00 0.00 0.00 19 1017.3
20260906021215 79 173 2.6 6.1 0.00 0.00 0.00 20 1016.8
20260906020235 80 183 3.5 7.0 0.00 0.00 0.00 19 1016.8
20260906015215 81 184 3.5 6.1 0.00 0.00 0.00 19 1016.8
20260906014215 81 199 6.1 7.8 0.00 0.00 0.00 18 1016.4
20260906013215 82 196 4.3 10.4 0.00 0.00 0.00 18 1016.8
20260906012215 82 201 6.1 13.9 0.00 0.00 0.00 17 1016.8
20260906011215 83 199 7.0 12.2 0.00 0.00 0.00 17 1017.5
20260906010215 84 204 9.6 13.9 0.00 0.00 0.00 16 1017.5
20260906005215 84 202 10.4 16.5 0.00 0.00 0.00 16 1017.4
20260906004215 85 206 7.0 13.0 0.00 0.00 0.00 16 1017.7
20260906003217 85 213 11.3 16.5 0.00 0.00 0.00 17 1017.7
20260906002215 85 177 7.0 15.6 0.00 0.00 0.00 17 1017.8
20260906001237 85 187 7.8 12.2 0.00 0.00 0.00 17 1017.7
20260906000219 85 218 6.1 11.3 0.00 0.00 0.00 16 1017.7
20260905235217 85 235 12.2 18.2 0.00 0.00 0.00 16 1017.7
20260905234237 85 197 12.2 17.4 0.00 0.00 0.00 15 1018.2
20260905233257 85 201 6.1 12.2 0.00 0.00 0.00 16 1018.2
20260905232217 86 193 12.2 16.5 0.00 0.00 0.00 15 1018.4
20260905231217 85 176 6.1 9.6 0.00 0.00 0.00 16 1018.4
20260905230237 85 200 7.8 17.4 0.00 0.00 0.00 15 1018.6
20260905225217 85 203 7.0 14.8 0.00 0.00 0.00 16 1018.6
20260905224216 86 205 10.4 20.0 0.00 0.00 0.00 15 1019.0
20260905223216 85 209 10.4 17.4 0.00 0.00 0.00 15 1019.1
20260905222217 85 227 7.8 14.8 0.00 0.00 0.00 14 1019.1
20260905221216 85 223 8.7 14.8 0.00 0.00 0.00 14 1019.0
20260905220216 85 196 7.8 12.2 0.00 0.00 0.00 14 1019.1
20260905215216 85 198 8.7 14.8 0.00 0.00 0.00 13 1019.5
20260905214216 85 224 9.6 23.5 0.00 0.00 0.00 13 1019.7
20260905213217 85 204 7.8 13.9 0.00 0.00 0.00 14 1019.6
20260905212236 84 166 7.8 13.0 0.00 0.00 0.00 13 1019.6
20260905211216 83 154 6.1 13.9 0.00 0.00 0.00 21 1019.9
20260905210216 83 155 7.0 12.2 0.00 0.00 0.00 21 1019.9
20260905205216 83 159 5.2 8.7 0.00 0.00 0.00 22 1020.0
20260905204236 82 167 7.8 11.3 0.00 0.00 0.00 19 1019.4
20260905203216 82 183 5.2 9.6 0.00 0.00 0.00 23 1020.0
20260905202216 81 158 6.1 13.0 0.00 0.00 0.00 23 1019.9
20260905201216 81 158 7.8 12.2 0.00 0.00 0.00 23 1020.1
20260905200216 81 107 4.3 10.4 0.00 0.00 0.00 23 1020.1
20260905195236 81 162 6.1 15.6 0.00 0.00 0.00 23 1020.0
20260905194216 81 151 7.0 12.2 0.00 0.00 0.00 25 1020.3
20260905193216 80 104 7.0 13.9 0.00 0.00 0.00 25 1020.0
20260905192236 80 118 7.0 14.8 0.00 0.00 0.00 25 1020.2
20260905191216 79 93 13.0 21.7 0.00 0.00 0.00 26 1020.4
20260905190236 79 149 8.7 16.5 0.00 0.00 0.00 24 1020.6
20260905185216 79 142 11.3 15.6 0.00 0.00 0.00 25 1020.5
20260905184216 79 102 9.6 14.8 0.00 0.00 0.00 25 1021.1
20260905183216 79 135 7.8 16.5 0.00 0.00 0.00 25 1021.1
20260905182216 78 168 6.1 10.4 0.00 0.00 0.00 26 1021.2
20260905181216 78 153 9.6 15.6 0.00 0.00 0.00 26 1021.2
20260905180216 79 187 10.4 17.4 0.00 0.00 0.00 19 1021.5
20260905175216 78 180 8.7 15.6 0.00 0.00 0.00 21 1021.0
20260905174216 77 122 8.7 16.5 0.00 0.00 0.00 28 1021.0
20260905173216 77 178 9.6 16.5 0.00 0.00 0.00 22 1021.1
20260905172216 77 182 3.5 9.6 0.00 0.00 0.00 28 1021.2
20260905171236 77 202 4.3 7.8 0.00 0.00 0.00 29 1021.4
20260905170216 78 173 7.0 9.6 0.00 0.00 0.00 21 1021.6
20260905165216 78 178 7.0 16.5 0.00 0.00 0.00 21 1021.6
20260905164216 76 188 8.7 13.0 0.00 0.00 0.00 27 1021.1
20260905163216 76 177 7.0 14.8 0.00 0.00 0.00 21 1021.0
20260905162216 75 189 6.1 11.3 0.00 0.00 0.00 25 1020.9
20260905161215 74 75 3.5 4.3 0.00 0.00 0.00 40 1021.3
20260905160216 72 1 2.6 4.3 0.00 0.00 0.00 38 1020.8
20260905155216 71 64 6.1 8.7 0.00 0.00 0.00 42 1020.5
20260905154215 71 56 4.3 8.7 0.00 0.00 0.00 41 1020.8
20260905153236 71 72 5.2 7.0 0.00 0.00 0.00 45 1020.9
20260905152216 71 59 3.5 7.0 0.00 0.00 0.00 45 1021.1
20260905151215 72 103 0.9 2.6 0.00 0.00 0.00 37 1021.3
20260905150215 72 108 1.7 3.5 0.00 0.00 0.00 35 1021.1
20260905145216 72 109 2.6 2.6 0.00 0.00 0.00 34 1021.1
20260905144236 72 109 1.7 1.7 0.00 0.00 0.00 34 1021.5
20260905143216 71 109 0.9 1.7 0.00 0.00 0.00 34 1021.2
20260905142216 69 0.0 0.0 0.00 0.00 0.00 37 1020.7
20260905141216 68 109 0.0 0.9 0.00 0.00 0.00 39 1020.7
20260905140215 68 0.0 0.0 0.00 0.00 0.00 39 1020.5
20260905135215 67 110 0.0 1.7 0.00 0.00 0.00 40 1020.6
20260905134215 66 98 0.9 2.6 0.00 0.00 0.00 41 1020.5
20260905133235 64 98 0.9 2.6 0.00 0.00 0.00 36 1019.8
20260905132215 64 98 2.6 3.5 0.00 0.00 0.00 31 1019.7
20260905131215 64 98 0.0 0.9 0.00 0.00 0.00 30 1019.9
20260905130215 65 98 0.0 1.7 0.00 0.00 0.00 30 1019.7
20260905125215 67 98 0.9 1.7 0.00 0.00 0.00 27 1020.0
20260905124215 67 98 1.7 3.5 0.00 0.00 0.00 27 1019.9
20260905123215 65 56 3.5 5.2 0.00 0.00 0.00 28 1019.4
20260905122215 66 0 2.6 4.3 0.00 0.00 0.00 28 1019.7
20260905121215 66 325 2.6 3.5 0.00 0.00 0.00 27 1019.5
20260905120215 66 341 4.3 5.2 0.00 0.00 0.00 28 1019.5
20260905115215 67 242 0.9 0.9 0.00 0.00 0.00 27 1019.4
20260905114215 67 242 2.6 2.6 0.00 0.00 0.00 27 1019.8
20260905113215 68 236 1.7 2.6 0.00 0.00 0.00 27 1019.8
20260905112215 69 251 1.7 2.6 0.00 0.00 0.00 26 1020.1
20260905111215 69 230 2.6 3.5 0.00 0.00 0.00 25 1020.0
20260905110215 70 193 4.3 7.8 0.00 0.00 0.00 25 1019.9
20260905105215 70 195 5.2 7.0 0.00 0.00 0.00 25 1020.0
20260905104215 70 193 5.2 8.7 0.00 0.00 0.00 25 1020.1
20260905103215 70 182 4.3 7.8 0.00 0.00 0.00 25 1019.9
20260905102215 71 184 7.0 10.4 0.00 0.00 0.00 25 1019.8
20260905101215 71 204 3.5 5.2 0.00 0.00 0.00 25 1019.9
20260905100235 72 201 4.3 7.8 0.00 0.00 0.00 25 1020.0
20260905095215 72 189 6.1 9.6 0.00 0.00 0.00 26 1020.1
20260905094217 72 186 2.6 7.8 0.00 0.00 0.00 27 1019.7
20260905093216 72 182 5.2 8.7 0.00 0.00 0.00 28 1019.7
20260905092217 72 164 7.0 12.2 0.00 0.00 0.00 29 1019.7
20260905091215 72 160 3.5 7.0 0.00 0.00 0.00 30 1019.7
20260905090237 73 159 4.3 9.6 0.00 0.00 0.00 30 1019.9
20260905085217 73 192 5.2 8.7 0.00 0.00 0.00 30 1020.0
20260905084217 73 192 4.3 5.2 0.00 0.00 0.00 30 1019.8
20260905083217 73 179 7.8 14.8 0.00 0.00 0.00 30 1019.7
20260905082216 74 190 7.0 13.9 0.00 0.00 0.00 29 1019.7
20260905081216 74 174 3.5 8.7 0.00 0.00 0.00 30 1019.4
20260905080216 74 192 5.2 8.7 0.00 0.00 0.00 30 1019.4
20260905075217 74 190 3.5 7.0 0.00 0.00 0.00 30 1019.2
20260905074216 73 192 6.1 11.3 0.00 0.00 0.00 30 1019.2
20260905073257 73 190 5.2 9.6 0.00 0.00 0.00 31 1019.0
20260905072236 73 211 5.2 7.0 0.00 0.00 0.00 31 1018.9
20260905071237 73 224 4.3 6.1 0.00 0.00 0.00 30 1018.3
20260905070216 73 191 5.2 9.6 0.00 0.00 0.00 31 1018.4
20260905065216 74 201 3.5 7.0 0.00 0.00 0.00 31 1018.6
20260905064216 74 194 2.6 4.3 0.00 0.00 0.00 30 1018.0
20260905063236 75 198 4.3 8.7 0.00 0.00 0.00 29 1017.8
20260905062216 75 188 4.3 10.4 0.00 0.00 0.00 29 1017.6
20260905060216 75 200 9.6 13.9 0.00 0.00 0.00 29 1017.3
20260905055216 75 191 4.3 8.7 0.00 0.00 0.00 29 1017.2
20260905054215 75 177 7.0 13.9 0.00 0.00 0.00 29 1016.9
20260905053216 76 183 6.1 9.6 0.00 0.00 0.00 29 1017.3
20260905052216 75 191 9.6 14.8 0.00 0.00 0.00 28 1016.9
20260905051216 76 195 2.6 5.2 0.00 0.00 0.00 27 1016.9
20260905050215 76 210 4.3 8.7 0.00 0.00 0.00 27 1016.8
20260905045236 76 202 6.1 11.3 0.00 0.00 0.00 26 1016.8
20260905044215 76 195 3.5 9.6 0.00 0.00 0.00 26 1016.7
20260905043215 77 202 6.1 8.7 0.00 0.00 0.00 26 1017.0
20260905042235 76 186 7.8 14.8 0.00 0.00 0.00 26 1016.7
20260905041215 75 200 2.6 7.8 0.00 0.00 0.00 26 1016.4
20260905040215 75 190 1.7 3.5 0.00 0.00 0.00 26 1016.4
20260905035215 75 198 2.6 4.3 0.00 0.00 0.00 26 1016.1
20260905034215 76 174 1.7 4.3 0.00 0.00 0.00 25 1015.6
20260905033215 76 196 3.5 5.2 0.00 0.00 0.00 25 1015.7
20260905032215 76 186 2.6 5.2 0.00 0.00 0.00 25 1015.5
20260905031215 77 198 3.5 6.1 0.00 0.00 0.00 25 1015.4
20260905030235 77 208 5.2 7.0 0.00 0.00 0.00 25 1015.4
20260905025235 78 200 1.7 3.5 0.00 0.00 0.00 26 1015.5
20260905024215 79 188 5.2 7.0 0.00 0.00 0.00 25 1015.2